| time (UTC) | temp F | wind direction | speed knots | gust knots | rain 1hr in | rain 24hr in | rain mn in | humidity % | barometer mb |
| 20260502231310 | 68 | 323 | 0.0 | 0.0 | 0.00 | 0.00 | 0.00 | 81 | 1011.1 |
| 20260502224310 | 66 | 323 | 0.0 | 0.0 | 0.00 | 0.00 | 0.00 | 83 | 1011.1 |
| 20260502221310 | 63 | 323 | 0.0 | 0.0 | 0.00 | 0.00 | 0.00 | 87 | 1011.1 |
| 20260502214310 | 60 | 323 | 0.0 | 0.0 | 0.00 | 0.00 | 0.00 | 90 | 1011.0 |
| 20260502211310 | 56 | 323 | 0.0 | 0.0 | 0.00 | 0.00 | 0.00 | 92 | 1010.9 |
| 20260502204310 | 55 | 323 | 0.0 | 0.0 | 0.00 | 0.00 | 0.00 | 90 | 1010.6 |
| 20260502201310 | 55 | 323 | 0.0 | 0.0 | 0.00 | 0.00 | 0.00 | 90 | 1010.3 |
| 20260502194310 | 54 | 323 | 0.0 | 0.0 | 0.00 | 0.00 | 0.00 | 89 | 1010.6 |
| 20260502191310 | 54 | 323 | 0.0 | 0.0 | 0.00 | 0.00 | 0.00 | 88 | 1010.2 |
| 20260502184310 | 54 | 323 | 0.0 | 0.0 | 0.00 | 0.00 | 0.00 | 87 | 1010.3 |
| 20260502181310 | 54 | 323 | 0.0 | 0.0 | 0.00 | 0.00 | 0.00 | 86 | 1010.4 |
| 20260502164310 | 53 | 323 | 0.0 | 0.0 | 0.00 | 0.00 | 0.00 | 85 | 1009.9 |
| 20260502161310 | 53 | 323 | 0.0 | 0.0 | 0.00 | 0.00 | 0.00 | 83 | 1010.2 |
| 20260502151310 | 55 | 323 | 0.0 | 0.0 | 0.00 | 0.00 | 0.00 | 77 | 1010.3 |
| 20260502121310 | 64 | 323 | 0.0 | 0.0 | 0.00 | 0.00 | 0.00 | 50 | 1009.3 |
| 20260502114310 | 65 | 323 | 0.0 | 0.0 | 0.00 | 0.00 | 0.00 | 40 | 1008.7 |
| 20260502111310 | 65 | 323 | 0.0 | 0.0 | 0.00 | 0.00 | 0.00 | 42 | 1008.3 |
| 20260502104310 | 66 | 323 | 0.0 | 0.0 | 0.00 | 0.00 | 0.00 | 44 | 1008.0 |
| 20260502101310 | 68 | 323 | 0.0 | 0.0 | 0.00 | 0.00 | 0.00 | 41 | 1008.0 |
| 20260502091310 | 72 | 323 | 0.0 | 0.0 | 0.00 | 0.00 | 0.00 | 36 | 1007.3 |
| 20260502071310 | 82 | 302 | 0.0 | 1.7 | 0.00 | 0.00 | 0.00 | 33 | 1005.8 |
| 20260502064310 | 81 | 331 | 0.9 | 5.2 | 0.00 | 0.00 | 0.00 | 31 | 1005.2 |
| 20260502061310 | 82 | 341 | 1.7 | 5.2 | 0.00 | 0.00 | 0.00 | 32 | 1004.8 |
| 20260502054310 | 82 | 344 | 1.7 | 3.5 | 0.00 | 0.00 | 0.00 | 32 | 1004.4 |
| 20260502051310 | 82 | 331 | 1.7 | 8.7 | 0.00 | 0.00 | 0.00 | 28 | 1004.1 |
| 20260502044310 | 82 | 341 | 2.6 | 12.2 | 0.00 | 0.00 | 0.00 | 28 | 1003.8 |
| 20260502041310 | 81 | 345 | 0.0 | 3.5 | 0.00 | 0.00 | 0.00 | 29 | 1003.9 |
| 20260502034310 | 80 | 347 | 0.9 | 1.7 | 0.00 | 0.00 | 0.00 | 30 | 1003.4 |
| 20260502031310 | 79 | 346 | 1.7 | 7.0 | 0.00 | 0.00 | 0.00 | 33 | 1002.9 |
| 20260502024310 | 79 | 320 | 1.7 | 7.0 | 0.00 | 0.00 | 0.00 | 40 | 1002.6 |
| 20260502021310 | 76 | 333 | 3.5 | 8.7 | 0.00 | 0.00 | 0.00 | 41 | 1002.4 |
| 20260502014310 | 75 | 250 | 3.5 | 14.8 | 0.00 | 0.00 | 0.00 | 41 | 1002.3 |
| 20260502011310 | 74 | 301 | 5.2 | 14.8 | 0.00 | 0.00 | 0.00 | 45 | 1002.2 |
| 20260502004310 | 72 | 332 | 3.5 | 7.0 | 0.00 | 0.00 | 0.00 | 48 | 1001.9 |
| 20260502001310 | 72 | 228 | 3.5 | 8.7 | 0.00 | 0.00 | 0.00 | 45 | 1001.6 |
| 20260501234310 | 71 | 316 | 3.5 | 7.0 | 0.00 | 0.00 | 0.00 | 44 | 1001.2 |